Location: Tamazert
(32.6352°N, 5.2072°W)
Time: 04:08:11
(UTC+00:00)

Vanguard 2 Rocket - Pass Details

Date: 03 October 2022
Orbit: 555 x 3321 km, 32.9° (Epoch: 04 December)

Event Time Altitude Azimuth Distance (km) Brightness Sun altitude
Rises 20:16:52 0° 218° (SW) 7,298 11.8 -28.8°
Reaches altitude 10° 20:22:24 10° 212° (SSW) 6,223 11.3 -29.9°
Maximum altitude 20:39:32 41° 150° (SSE) 3,513 9.4 -33.4°
Enters shadow 20:39:41 41° 149° (SSE) 3,504 9.4 -33.4°
Drops below altitude 10° 20:51:20 10° 86° (E) 4,392 - -35.7°
Sets 20:54:26 0° 79° (E) 5,053 - -36.3°
